Back to catalog

FENGYUN 1C DEB

AliveSSO
NORAD 30272·DEBRIS·🇨🇳 China

Launched May 10, 1999 from Taiyuan Satellite Launch Center

Loading…

Next Passes (next 24 hours)

TLE

FreshSource: Space-Track

Epoch: Sep 14, 2026, 03:48 UTC

1 30272U 99025YH  26257.15856422  .00001370  00000-0  71093-3 0  9998
2 30272  98.8841 329.0000 0049492  43.2964 317.2083 14.15813672  7519

Track FENGYUN 1C DEB in real time with AllMySat

Download on the App Store